This is the latest recevied weather packets stored in our database for station/object HG5CJW-10. If no packets are shown the sender has not sent any weather packets the latest 10 day(s).
| Time | Temp. | Humidity | Pressure | Rain* | Wind** | Luminosity | Snow |
|---|---|---|---|---|---|---|---|
| 1777390419 | 19.44° C | 40% | 1036.9 hPa | - | - | - | - |
| 1777389519 | 19.44° C | 40% | 1037 hPa | - | - | - | - |
| 1777388619 | 19.44° C | 40% | 1036.9 hPa | - | - | - | - |
| 1777387719 | 19.44° C | 40% | 1037 hPa | - | - | - | - |
| 1777386819 | 18.89° C | 40% | 1037.1 hPa | - | - | - | - |
| 1777385919 | 18.89° C | 40% | 1037.4 hPa | - | - | - | - |
| 1777385019 | 18.89° C | 40% | 1037.4 hPa | - | - | - | - |
| 1777384119 | 18.33° C | 40% | 1037 hPa | - | - | - | - |
| 1777383213 | 18.33° C | 40% | 1037.6 hPa | - | - | - | - |
| 1777382313 | 18.33° C | 40% | 1037.7 hPa | - | - | - | - |
| 1777381413 | 18.33° C | 40% | 1037.8 hPa | - | - | - | - |
| 1777380513 | 17.78° C | 40% | 1037.9 hPa | - | - | - | - |
| 1777379613 | 17.78° C | 40% | 1038.1 hPa | - | - | - | - |
| 1777378713 | 17.22° C | 40% | 1038 hPa | - | - | - | - |
| 1777377813 | 17.22° C | 40% | 1038.2 hPa | - | - | - | - |
| 1777376913 | 16.67° C | 41% | 1038.2 hPa | - | - | - | - |
| 1777376013 | 16.67° C | 41% | 1038.3 hPa | - | - | - | - |
| 1777375113 | 16.11° C | 41% | 1038.4 hPa | - | - | - | - |
| 1777374213 | 16.11° C | 41% | 1038.5 hPa | - | - | - | - |
| 1777373313 | 15.56° C | 41% | 1038.7 hPa | - | - | - | - |
| 1777371513 | 15° C | 42% | 1038.8 hPa | - | - | - | - |
| 1777370612 | 13.89° C | 43% | 1038.7 hPa | - | - | - | - |
| 1777369708 | 13.89° C | 43% | 1038.6 hPa | - | - | - | - |
| 1777368808 | 13.33° C | 44% | 1039.1 hPa | - | - | - | - |
| 1777367908 | 13.33° C | 44% | 1039.3 hPa | - | - | - | - |
* Rain since midnight (hover to see other rain measurements)
** Current wind speed in m/s (hover to see current wind gust speed)